Pascagoula Weather Center

Moon Phase Calendar



Online Cameras

 


      

Current Conditions in Pascagoula
7/29/2021 9:17:26 AM

84°F
Feels Like 96
Clear
Humidity
85%
Pressure
30.06"
Wind
0
Dew Point
79°F
UV Index
3/10 (Moderate)
Visibility
6 mi

Hourly Forecast

Date & Time Thu, Jul 29
9:00 AM
Thu, Jul 29
10:00 AM
Thu, Jul 29
11:00 AM
Thu, Jul 29
12:00 PM
Thu, Jul 29
1:00 PM
Thu, Jul 29
2:00 PM
Thu, Jul 29
3:00 PM
Thu, Jul 29
4:00 PM
Thu, Jul 29
5:00 PM
Thu, Jul 29
6:00 PM
Thu, Jul 29
7:00 PM
Thu, Jul 29
8:00 PM
Thu, Jul 29
9:00 PM
Thu, Jul 29
10:00 PM
Thu, Jul 29
11:00 PM
Fri, Jul 30
12:00 AM
Fri, Jul 30
1:00 AM
Fri, Jul 30
2:00 AM
Fri, Jul 30
3:00 AM
Fri, Jul 30
4:00 AM
Fri, Jul 30
5:00 AM
Fri, Jul 30
6:00 AM
Fri, Jul 30
7:00 AM
Fri, Jul 30
8:00 AM
Fri, Jul 30
9:00 AM
Fri, Jul 30
10:00 AM
Fri, Jul 30
11:00 AM
Fri, Jul 30
12:00 PM
Fri, Jul 30
1:00 PM
Fri, Jul 30
2:00 PM
Fri, Jul 30
3:00 PM
Fri, Jul 30
4:00 PM
Fri, Jul 30
5:00 PM
Fri, Jul 30
6:00 PM
Fri, Jul 30
7:00 PM
Fri, Jul 30
8:00 PM
Fri, Jul 30
9:00 PM
Fri, Jul 30
10:00 PM
Fri, Jul 30
11:00 PM
Sat, Jul 31
12:00 AM
Sat, Jul 31
1:00 AM
Sat, Jul 31
2:00 AM
Sat, Jul 31
3:00 AM
Sat, Jul 31
4:00 AM
Sat, Jul 31
5:00 AM
Sat, Jul 31
6:00 AM
Sat, Jul 31
7:00 AM
Sat, Jul 31
8:00 AM
Condition
Rain

Clear

Clouds

Clouds

Clouds

Clouds

Clouds

Clouds

Clouds

Rain

Rain

Clouds

Clouds

Clouds

Clouds

Clouds

Clouds

Clear

Clear

Rain

Rain

Clear

Rain

Clear

Clear

Clear

Clear

Clear

Clear

Clear

Clouds

Clouds

Clouds

Rain

Rain

Rain

Clouds

Clouds

Clouds

Clouds

Clouds

Clouds

Clouds

Clouds

Clouds

Clouds

Clouds

Clouds
Temperature 84°F84°F86°F87°F89°F90°F89°F87°F88°F86°F82°F82°F81°F81°F81°F81°F80°F80°F80°F79°F78°F78°F79°F81°F85°F87°F90°F92°F92°F93°F91°F88°F89°F86°F85°F83°F81°F80°F81°F81°F81°F81°F80°F78°F78°F78°F78°F81°F
Feels Like 96°F95°F97°F98°F99°F98°F97°F96°F96°F94°F88°F88°F87°F87°F87°F86°F86°F80°F80°F79°F80°F79°F79°F87°F92°F96°F99°F102°F103°F102°F101°F98°F100°F96°F93°F91°F87°F85°F86°F87°F88°F86°F80°F80°F79°F79°F80°F86°F
Cloudiness 1%5%15%27%42%81%80%84%67%56%57%60%39%28%22%19%17%7%7%5%4%0%8%0%8%0%7%6%5%3%12%22%16%25%12%24%26%31%38%45%46%34%27%21%18%16%17%23%
Visibility 6 mi6 mi6 mi6 mi6 mi6 mi6 mi6 mi6 mi6 mi6 mi6 mi6 mi6 mi6 mi6 mi6 mi6 mi6 mi6 mi6 mi6 mi6 mi6 mi6 mi6 mi6 mi6 mi6 mi6 mi6 mi6 mi6 mi6 mi6 mi6 mi6 mi6 mi6 mi6 mi6 mi6 mi6 mi6 mi6 mi6 mi6 mi6 mi
Precipitation 39%25%21%21%17%3%3%3%19%31%47%24%24%17%13%9%1%4%4%32%26%26%33%16%30%28%30%30%27%2%0%6%12%55%49%42%35%27%15%15%15%0%0%0%0%2%0%12%
Humidity 85%81%75%70%65%59%62%65%64%70%79%81%82%83%83%83%83%84%85%87%88%88%84%80%70%65%60%57%56%54%57%65%64%69%72%75%82%83%83%82%81%80%78%78%80%84%83%76%
Dew Point 79°F78°F77°F76°F75°F73°F74°F74°F74°F75°F75°F75°F75°F75°F75°F75°F75°F75°F75°F74°F74°F74°F74°F75°F74°F74°F74°F74°F74°F73°F73°F75°F75°F75°F75°F75°F75°F75°F75°F75°F75°F74°F72°F71°F71°F72°F73°F73°F
Pressure 30.06"30.06"30.06"30.03"30.03"30"30"29.97"29.97"29.97"30"29.97"30"30"30"30"30"30"29.97"30"30"30"-2.95"30.03"30.06"30.06"30.06"30.03"30.03"30"30"30"29.97"30"30"30"30"30.03"30.03"30.03"30.03"30"30"30"30"30.03"30.03"30.03"
Wind Speed 4.1 mph3.3 mph1.4 mph3.2 mph5.8 mph7.8 mph9.2 mph9.5 mph9.1 mph5.4 mph4.1 mph6.2 mph7 mph7.8 mph4.5 mph2.4 mph3.2 mph4.9 mph5 mph5.2 mph5.8 mph5.2 mph5.3 mph4.4 mph4.7 mph3 mph4.7 mph4.5 mph5.5 mph7.4 mph10.3 mph12.2 mph11.5 mph3.3 mph6.6 mph8.1 mph8.4 mph7.3 mph6.5 mph4.9 mph5.7 mph6.6 mph6.5 mph5.6 mph6.2 mph6.6 mph5.3 mph5 mph
Wind
Direction

N
17°
NNE
63°
ENE
148°
SSE
171°
S
176°
S
185°
S
199°
SSW
206°
SSW
171°
S
184°
S
215°
SW
217°
SW
230°
SW
239°
WSW
258°
WSW
267°
W
273°
W
283°
WNW
307°
NW
311°
NW
308°
NW
320°
NW
323°
NW
304°
NW
315°
NW
289°
WNW
256°
WSW
239°
WSW
205°
SSW
202°
SSW
206°
SSW
206°
SSW
203°
SSW
241°
WSW
228°
SW
253°
WSW
253°
WSW
245°
WSW
257°
WSW
278°
W
294°
WNW
313°
NW
314°
NW
302°
WNW
300°
WNW
316°
NW
325°
NW

Daily Forecast

Date High Low Precip. Humidity
Today
Jul 29

Rain
90 °F
78 °F
62%
65%
Friday
Jul 30

Rain
93 °F
78 °F
49%
56%
Saturday
Jul 31

Rain
92 °F
78 °F
100%
56%
Sunday
Aug 1

Rain
89 °F
78 °F
76%
59%
Monday
Aug 2

Rain
85 °F
78 °F
94%
73%
Tuesday
Aug 3

Rain
82 °F
77 °F
100%
73%
Wednesday
Aug 4

Rain
86 °F
76 °F
97%
68%
Thursday
Aug 5

Rain
88 °F
75 °F
41%
54%
Friday
Aug 6

Rain
88 °F
78 °F
45%
56%
Saturday
Aug 7

Rain
88 °F
78 °F
80%
64%
Sunday
Aug 8

Rain
88 °F
78 °F
100%
61%
Monday
Aug 9

Rain
83 °F
75 °F
100%
77%
Tuesday
Aug 10

Rain
79 °F
77 °F
98%
85%
Wednesday
Aug 11

Rain
88 °F
76 °F
54%
60%
Thursday
Aug 12

Rain
88 °F
80 °F
67%
62%
Friday
Aug 13

Rain
90 °F
79 °F
46%
57%

Temperature 8-14 Day Outlook



Precipitation 8-14 Day Outlook




Quick Links
Pascagoula News
Pascagoula Photos
Pascagoula Videos




About Us
Contact Us
Site Map
Search Site
Advertise With Us
   
Pascagoula.USGulf.info
THE PASCAGOULA WEBSITE

Copyright 2021, Coastal Town
Privacy    |    Legal